Regional Weather Roundup
Issued by NWS

Home | Current Version | Previous Version | Graphics & Text | Print | Product List | Glossary On
Versions: 1 2 3 4 5 6 7 8 9 10 11 12 13 14 15 16 17 18 19 20 21 22 23 24 25 26 27 28 29 30 31 32 33 34 35 36 37 38 39 40 41 42 43 44 45 46 47 48 49 50
000
ASUS43 KDMX 210401
RWRIA

WEATHER ROUNDUP FOR IOWA
NATIONAL WEATHER SERVICE DES MOINES IA
1000 PM CST TUE FEB 20 2018

NOTE: "FAIR" INDICATES FEW OR NO CLOUDS BELOW 12,000 FEET WITH NO
SIGNIFICANT WEATHER AND/OR OBSTRUCTIONS TO VISIBILITY.

* - THESE STATIONS ARE NOT NWS STATIONS...THUS NOT UNDER NWS
QUALITY CONTROL.  THEY ALSO DO NOT REPORT WEATHER SUCH
AS PRECIPITATION OR FOG.

IAZ001>003-012>014-020>022-031>034-043>046-210500-
   NORTHWEST IOWA

CITY           SKY/WX    TMP DP  RH WIND       PRES   REMARKS
CARROLL *      CLOUDY    12   9  85 NW17      30.36R WCI  -5
CHEROKEE *     PTCLDY    10   5  82 NW8G16    30.39R WCI  -3
DENISON *      MOCLDY    10   7  85 N16       30.40R WCI  -7
LE MARS *      CLOUDY     7   1  78 NW7       30.41R WCI  -5
ORANGE CITY *  CLOUDY     5   1  85 NW3       30.37R
SHELDON *      CLEAR      7   1  78 NW9       30.35R WCI  -7
SIOUX CITY     CLOUDY     9   3  77 NW10      30.41R WCI  -5
SPENCER        MIX PCPN   9   3  77 NW10      30.36R WCI  -5
STORM LAKE *   CLOUDY     9   5  85 NW15G22   30.35R WCI  -8
$$

IAZ055>058-069>071-079>083-090>094-210500-
   SOUTHWEST IOWA

CITY           SKY/WX    TMP DP  RH WIND       PRES   REMARKS
ATLANTIC *     CLOUDY    14   9  79 N15G21    30.38R WCI  -1
AUDUBON *      CLOUDY    12   9  85 NW12G17   30.36R WCI  -2
CLARINDA *     CLOUDY    18  12  79 N13G22    30.41R WCI   4
COUNCIL BLFS * CLOUDY    12  10  92 NW10      30.39R WCI  -1
CRESTON *      MOCLDY    16  12  86 N15G22    30.34R WCI   1
HARLAN  *      PTCLDY    12   9  85 N17       30.41R WCI  -5
LAMONI         CLOUDY    18  13  80 N14       30.32R WCI   4
RED OAK *      CLOUDY    16  10  79 N12       30.41R WCI   3
SHENANDOAH *   CLOUDY    16  10  79 N15       30.41R WCI   1
$$

IAZ047>049-059>061-072>074-084-210500-
   CENTRAL IOWA

CITY           SKY/WX    TMP DP  RH WIND       PRES   REMARKS
AMES           PTCLDY    17  10  74 N21G28    30.35R WCI   0
ANKENY *       CLOUDY    18  12  79 NW14G21   30.35R WCI   4
BOONE *        CLOUDY    16  10  79 MISG      30.33R
CHARITON *     CLOUDY    18  14  86 NW14G22   30.31R WCI   4
DES MOINES     CLOUDY    18  12  77 NW12G21   30.33R WCI   5
GRINNELL*      MOCLDY    19  15  84 NW17      30.30R WCI   4
KNOXVILLE *    CLOUDY    19  14  79 NW15G22   30.30R WCI   5
MARSHALLTOWN   CLOUDY    17  12  80 NW17      30.31R WCI   1
NEWTON *       CLOUDY    18  14  86 NW17      30.31R WCI   2
PELLA *        CLOUDY    20  15  81 NW13      30.32R WCI   7
$$

IAZ004>006-015-016-023>025-035-036-210500-
   NORTH CENTRAL IOWA

CITY           SKY/WX    TMP DP  RH WIND       PRES   REMARKS
CLARION *      CLOUDY    12  12 100 NW17      30.34R WCI  -5
ESTHERVILLE    CLOUDY     8   2  76 NW13      30.34R WCI  -8
FORT DODGE *   PTCLDY    12   7  80 NW8       30.36R WCI   0
MASON CITY     CLOUDY    11   6  81 NW18      30.33R WCI  -7
FOREST CITY *  FAIR      12   9  85 NW9       30.32R WCI   0
WEBSTER CITY * PTCLDY    14   7  73 NW18      30.33R WCI  -3
IOWA FALLS *   FAIR      16  11  82 NW14      30.33R WCI   1
$$

IAZ007>011-017>019-026>030-037>042-050>054-066-210500-
   NORTHEAST IOWA

CITY           SKY/WX    TMP DP  RH WIND       PRES   REMARKS
CEDAR RAPIDS   FAIR      21  13  71 NW23      30.25R WCI   5
CHARLES CITY * CLOUDY    14  14 100 NW18      30.29R WCI  -3
CLINTON *        N/A     26  22  84 MISG      30.23R
DECORAH *      MOCLDY    14  10  85 NW8G16    30.25R WCI   3
DUBUQUE        FAIR      22  16  78 NW16      30.19R WCI   8
MONTICELLO *   FAIR      21  16  79 NW15G23   30.23R WCI   8
OELWEIN *      MOCLDY    18  18 100 NW22G28   30.26R WCI   0
WATERLOO       FAIR      16  11  80 NW18      30.30R WCI   0
$$

IAZ064-065-067-068-078-210500-
   EAST CENTRAL IOWA

CITY           SKY/WX    TMP DP  RH WIND       PRES   REMARKS
DAVENPORT      MOCLDY    27  20  75 NW17      30.25R WCI  14
IOWA CITY      FAIR      24  14  65 NW18      30.28R WCI  10
MT. PLEASANT * MOCLDY    25  19  80 N20       30.25R WCI  11
MUSCATINE *    FAIR      25  18  74 NW18      30.27R WCI  11
QUAD CITIES    FAIR      27  20  75 NW18      30.23R WCI  14
$$

IAZ062-063-075>077-085>089-095>099-210500-
   SOUTHEAST IOWA

CITY           SKY/WX    TMP DP  RH WIND       PRES   REMARKS
BURLINGTON     MOCLDY    26  20  77 NW17G24   30.24R WCI  13
FAIRFIELD *    CLOUDY    23  16  74 NW20G30   30.26R WCI   8
FORT MADISON * MOCLDY    25  21  86 NW14      30.25R WCI  13
KEOKUK *       CLOUDY    25  21  86 NW15      30.25R WCI  12
OSKALOOSA *    MOCLDY    22  18  85 NW13      30.30R WCI   9
OTTUMWA        MOCLDY    22  16  78 NW22      30.28S WCI   6
WASHINGTON *   MOCLDY    23  21  93 NW16G25   30.28R WCI  10
$$

ABBREVIATIONS USED IN REMARKS
   TC - TEMPERATURES IN CELSIUS
  WCI - WIND CHILL INDEX
   HX - HEAT INDEX
  VSB - VISIBILITY
$$





USA.gov is the U.S. government's official web portal to all federal, state and local government web resources and services.